Regional Weather Roundup
Issued by NWS Cleveland, OH

Home | Current Version | Previous Version | Text Only | Print | Product List | Glossary Off
Versions: 1 2 3 4 5 6 7 8 9 10 11 12 13 14 15 16 17 18 19 20 21 22 23 24 25 26 27 28 29 30 31 32 33 34 35 36 37 38 39 40 41 42 43 44 45 46 47 48 49 50

234
ASUS41 KCLE 161610
RWRCLE
OHIO REGIONAL WEATHER ROUNDUP
NATIONAL WEATHER SERVICE WILMINGTON, OH
1100 AM EST TUE JAN 16 2018

NOTE: "FAIR" INDICATES FEW OR NO CLOUDS BELOW 12,000 FEET WITH NO
SIGNIFICANT WEATHER AND/OR OBSTRUCTIONS TO VISIBILITY.

OHZ001>008-015>018-024>027-034-035-043-044-161700-
   NORTHWEST OHIO

CITY           SKY/WX    TMP DP  RH WIND       PRES   REMARKS
DEFIANCE       PTSUNNY    1  -6  72 SW9       30.47S WCI -14
FINDLAY        FAIR       3  -5  69 SW16      30.46S WCI -16
TOLEDO EXPRESS LGT SNOW   4  -1  80 SW13      30.45S WCI -13
TOLEDO EXEC    CLOUDY     5  -1  76 SW16      30.47R HAZE    WCI -14
LIMA           FAIR       1  -4  79 SW15      30.45S WCI -18
$$

OHZ009>014-019>023-028>033-038-089-161700-
   NORTHEAST OHIO

CITY           SKY/WX    TMP DP  RH WIND       PRES   REMARKS
CLE-HOPKINS    PTSUNNY    9   1  70 S10       30.46S WCI  -5
CLE-LAKEFRONT  FAIR      10   1  67 S13       30.45S WCI  -5
CUY CO. ARPT   MOSUNNY   10   1  67 SW14      30.43R WCI  -5
LORAIN-ELYRIA  CLOUDY     8   0  69 W13       30.44S HAZE    WCI  -8
ASHTABULA      CLOUDY    16  11  80 N6        30.39S HAZE    WCI   7
AKRON-CANTON   CLOUDY    11   4  73 SW9       30.39F WCI  -2
WOOSTER        FAIR       6  -1  73 W9        30.43R WCI  -8
MANSFIELD      PTSUNNY    5  -1  76 SW8       30.41R WCI  -8
YOUNGSTOWN     LGT SNOW  20  17  88 W13       30.36R FOG     WCI   7
$$

OHZ042-051>053-060>062-070>072-077>081-161700-
  SOUTHWEST OHIO

CITY           SKY/WX    TMP DP  RH WIND       PRES   REMARKS
CINC-COVINGTON PTSUNNY    7   0  73 W9        30.51S WCI  -7
CINC-LUNKEN    CLOUDY    10   2  69 W8        30.58R WCI  -2
HAMILTON       FAIR       5  -2  72 W6        30.56R WCI  -6
DAYTON         FAIR       3  -3  76 W10       30.50R WCI -12
WRIGHT-PAT AFB FAIR       4  -5  67 SW9       30.51S WCI -11
DAYTON GENERAL FAIR       3  -4  72 W9        30.50S WCI -12
WILMINGTON     FAIR       7   0  73 W10       30.48S WCI  -8
$$

OHZ036-037-039>041-045>050-054>059-063>069-073>076-082>088-161700-
  CENTRAL AND SOUTHEAST OHIO

CITY           SKY/WX    TMP DP  RH WIND       PRES   REMARKS
COLUMBUS       CLOUDY     7   0  73 W9        30.49R WCI  -7
OSU AIRPORT    FAIR       4  -1  80 W14       30.48R WCI -14
BOLTON FIELD   SUNNY      7   0  72 W7        30.49R WCI  -5
RICKENBACK AFB FAIR       7   0  73 W10       30.49F WCI  -8
NEWARK         CLOUDY    11   3  70 W12       30.46R WCI  -3
MARION         FAIR       4  -3  73 W8        30.46R WCI  -9
LANCASTER      CLOUDY     9   2  73 W8        30.48S WCI  -3
ZANESVILLE     LGT SNOW  13   7  77 W6        30.45S VSB 1   WCI   4
NEW PHILLY     LGT SNOW  12   6  77 W6        30.45R WCI   3
$$




USA.gov is the U.S. government's official web portal to all federal, state and local government web resources and services.